Location: site
(53.0000°N, 23.0500°E)
Time: 21:05:14
(UTC+01:00)

SAOCOM 1-A - Pass Details

Date: 25 January 2020
Orbit: 621 x 623 km, 97.9° (Epoch: 24 February)

Event Time Altitude Azimuth Distance (km) Brightness Sun altitude
Rises 04:41:51 0° 166° (SSE) 2,894 ? -23.8°
Reaches altitude 10° 04:44:02 10° 167° (SSE) 1,992 ? -23.5°
Maximum altitude 04:48:22 82° 255° (WSW) 637 ? -22.8°
Enters shadow 04:49:11 59° 332° (NNW) 729 ? -22.7°
